Tracking 19149 objects as of 22-Apr-2018
HD Live streaming from Space Station
objects crossing your sky now

COSMOS 2039

Track COSMOS 2039 now!
10-day predictions
COSMOS 2039 is classified as:


NORAD ID: 20233
Int'l Code: 1989-074B
Perigee: 1,393.4 km
Apogee: 1,415.8 km
Inclination: 82.6 °
Period: 113.7 minutes
Semi major axis: 7775 km
RCS: 1.1884 m2 (large)
Launch date: September 14, 1989
Source: Commonwealth of Independent States (former USSR) (CIS)
Launch site: PLESETSK MISSILE AND SPACE COMPLEX (PKMTR)
aabbcc
Your satellite tracking list
Your tracking list is empty




NASA's NSSDC Master Catalog

Two Line Element Set (TLE):
1 20233U 89074B   18111.92791426 +.00000032 +00000-0 +11542-3 0  9991
2 20233 082.5768 297.5907 0014378 317.0222 154.8411 12.66193147321670
Source of the keplerian elements: AFSPC